DW6282 Weather Reports


Display with metric or nautical units.
time (UTC)temp
F
wind
direction
speed
MPH
gust
MPH
rain 1hr
in
rain 24hr
in
rain mn
in
humidity
%
barometer
mb
20260904013038 83 199 0.0 0.0 0.00 0.00 0.00 88 1010.7
20260904011539 83 199 0.0 1.0 0.00 0.00 0.00 88 1010.7
20260904010045 83 211 0.0 0.0 0.00 0.00 0.00 88 1010.7
20260904004537 83 209 0.0 0.0 0.00 0.00 0.00 86 1010.6
20260904003036 84 209 0.0 0.0 0.00 0.00 0.00 85 1010.5
20260904001637 84 209 0.0 1.0 0.00 0.00 0.00 84 1010.7
20260904000044 84 205 0.0 1.0 0.00 0.00 0.00 84 1010.9
20260903234535 85 205 0.0 1.0 0.00 0.00 0.00 85 1010.8
20260903233034 85 231 0.0 1.0 0.00 0.00 0.00 85 1010.7
20260903231534 85 315 0.0 1.0 0.00 0.00 0.00 85 1010.6
20260903230032 85 65 0.0 2.0 0.00 0.00 0.00 85 1010.6
20260903224530 86 254 0.0 3.0 0.00 0.00 0.00 85 1010.9
20260903223035 86 65 0.0 3.0 0.00 0.00 0.00 84 1010.9
20260903221529 86 342 0.0 1.0 0.00 0.00 0.00 85 1010.9
20260903220027 86 338 0.0 3.0 0.00 0.00 0.00 85 1011.0
20260903214525 86 270 0.0 1.0 0.00 0.00 0.00 85 1011.2
20260903213024 86 270 0.0 1.0 0.00 0.00 0.00 86 1011.8
20260903211524 85 37 0.0 2.0 0.00 0.00 0.00 86 1011.7
20260903210023 85 45 0.0 1.0 0.00 0.00 0.00 84 1011.7
20260903204523 84 344 0.0 1.0 0.00 0.00 0.00 85 1011.9
20260903203033 83 109 0.0 4.0 0.00 0.00 0.00 85 1011.5
20260903201521 83 32 0.0 3.0 0.00 0.00 0.00 86 1011.5
20260903200020 82 34 0.0 5.0 0.00 0.00 0.00 82 1011.5
20260903194520 82 316 1.0 5.0 0.00 0.00 0.00 83 1012.0
20260903193021 83 36 6.0 11.0 0.00 0.00 0.00 82 1012.2
20260903191518 87 205 0.0 4.0 0.00 0.00 0.00 79 1011.8
20260903190017 91 190 1.0 7.0 0.00 0.00 0.00 77 1011.9
20260903184519 93 182 0.0 3.0 0.00 0.00 0.00 76 1011.8
20260903183015 94 228 0.0 2.0 0.00 0.00 0.00 74 1012.2
20260903181514 93 178 0.0 1.0 0.00 0.00 0.00 74 1012.1
20260903180013 92 224 0.0 2.0 0.00 0.00 0.00 74 1012.5
20260903174518 93 139 0.0 5.0 0.00 0.00 0.00 75 1012.7
20260903173011 94 194 0.0 2.0 0.00 0.00 0.00 76 1012.7
20260903171509 92 207 0.0 1.0 0.00 0.00 0.00 77 1012.9
20260903170007 93 210 0.0 2.0 0.00 0.00 0.00 77 1013.1
20260903164504 91 197 0.0 5.0 0.00 0.00 0.00 79 1013.1
20260903163102 89 160 0.0 1.0 0.00 0.00 0.00 81 1013.0
20260903161556 87 202 0.0 0.0 0.00 0.00 0.00 83 1012.9
20260903160105 86 202 0.0 1.0 0.00 0.00 0.00 85 1012.9
20260903154552 85 201 0.0 1.0 0.00 0.00 0.00 86 1012.9
20260903153049 85 200 0.0 1.0 0.00 0.00 0.00 86 1012.8
20260903151545 84 200 0.0 0.0 0.00 0.00 0.00 87 1012.9
20260903150048 83 200 0.0 0.0 0.00 0.00 0.00 88 1012.8
20260903144551 82 201 0.0 0.0 0.00 0.00 0.00 88 1012.8
20260903143043 81 201 0.0 0.0 0.00 0.00 0.00 88 1012.9
20260903141544 80 200 0.0 0.0 0.00 0.00 0.00 89 1013.1
20260903140041 80 201 0.0 0.0 0.00 0.00 0.00 89 1013.0
20260903134543 80 201 0.0 0.0 0.00 0.00 0.00 89 1013.2
20260903133040 80 201 0.0 0.0 0.00 0.00 0.00 89 1013.1
20260903131539 80 201 0.0 0.0 0.00 0.00 0.00 89 1013.1
20260903130040 80 201 0.0 0.0 0.00 0.00 0.00 89 1012.9
20260903124541 80 201 0.0 2.0 0.00 0.00 0.00 88 1012.7
20260903123036 80 205 0.0 4.0 0.00 0.00 0.00 86 1012.7
20260903121534 81 207 1.0 3.0 0.00 0.00 0.00 91 1012.4
20260903120034 81 198 0.0 0.0 0.00 0.00 0.00 92 1012.3
20260903114531 82 198 0.0 0.0 0.00 0.06 0.00 92 1012.2
20260903113036 82 198 0.0 0.0 0.00 0.06 0.00 92 1012.2
20260903111533 82 198 0.0 0.0 0.00 0.06 0.00 91 1012.1
20260903110030 82 198 0.0 0.0 0.00 0.06 0.00 91 1012.0
20260903104529 82 198 0.0 2.0 0.00 0.06 0.00 90 1011.9
20260903103029 82 198 0.0 1.0 0.00 0.06 0.00 91 1011.9
20260903101532 82 182 0.0 1.0 0.00 0.06 0.00 91 1011.8
20260903100026 82 182 0.0 0.0 0.00 0.06 0.00 91 1011.7
20260903094530 82 159 0.0 0.0 0.00 0.06 0.00 91 1011.7
20260903093039 82 159 0.0 0.0 0.00 0.06 0.00 90 1011.8
20260903091525 82 159 0.0 1.0 0.00 0.06 0.00 90 1011.8
20260903090031 82 159 0.0 1.0 0.00 0.06 0.00 90 1011.9
20260903084525 82 159 0.0 1.0 0.00 0.06 0.00 90 1011.9
20260903083024 82 157 0.0 3.0 0.00 0.06 0.00 90 1011.8
20260903081523 82 195 0.0 1.0 0.00 0.06 0.00 91 1011.6
20260903080029 82 191 0.0 1.0 0.00 0.06 0.00 90 1011.7
20260903074522 83 195 0.0 3.0 0.00 0.06 0.00 90 1011.6
20260903073028 83 191 0.0 2.0 0.00 0.06 0.00 89 1011.7
20260903071530 83 201 1.0 4.0 0.00 0.06 0.00 89 1011.8
20260903070016 83 191 0.0 4.0 0.00 0.06 0.00 89 1011.9
20260903064513 83 186 0.0 2.0 0.00 0.06 0.00 89 1012.1
20260903063012 83 195 0.0 3.0 0.00 0.06 0.00 89 1012.2
20260903061512 83 209 1.0 5.0 0.00 0.06 0.00 90 1012.3
20260903060012 83 203 0.0 3.0 0.00 0.06 0.00 91 1012.5
20260903054505 82 211 1.0 4.0 0.00 0.06 0.00 93 1012.6
20260903053100 81 208 0.0 1.0 0.00 0.06 0.00 96 1012.7
20260903051601 81 210 0.0 3.0 0.00 0.06 0.00 97 1012.7
20260903050056 81 205 0.0 2.0 0.00 0.06 0.00 97 1012.8
20260903044558 80 205 0.0 1.0 0.00 0.06 0.06 97 1012.8
20260903043056 80 205 0.0 1.0 0.00 0.06 0.06 97 1012.8
20260903041555 80 206 0.0 2.0 0.00 0.06 0.06 97 1012.8
20260903040055 81 192 0.0 3.0 0.00 0.06 0.06 97 1012.8
20260903034600 81 210 1.0 6.0 0.00 0.06 0.06 97 1012.6
20260903033100 81 202 0.0 3.0 0.00 0.06 0.06 97 1012.8
20260903031629 81 212 0.0 3.0 0.00 0.06 0.06 97 1012.6
20260903030055 81 203 0.0 4.0 0.00 0.06 0.06 97 1012.3
20260903024556 81 198 1.0 5.0 0.00 0.06 0.06 97 1012.1
20260903023051 81 202 0.0 3.0 0.00 0.06 0.06 97 1012.1
20260903021551 81 210 1.0 5.0 0.00 0.06 0.06 96 1011.7
20260903020053 81 212 1.0 3.0 0.00 0.06 0.06 96 1011.8
20260903014555 82 174 0.0 2.0 0.00 0.06 0.06 94 1011.7